Vertical_Velocity
-0 -1 -1 -1 -1 -1 -1 -1 -3 -2 -2 0 2 -0 -1 1 -1 -2 0 1 -1 3 1 -1 -0 2 3 1 -0 -1 -1 1 -1 -5 -2 0 -2 -0 -1 -1 1 -1 -2
1 1 2 1 1 0 -1 -1 -1 -0 0 -3 1 -0 -1 0 -2 -1 -0 2 1 1 2 -1 1 3 0 1 2 2 1 2 1 -3 -3 -1 -1 1 0 -2 -4 0 -0
0 0 0 0 -0 0 2 -1 -1 -0 0 0 0 2 1 1 -0 1 -2 -1 -1 -2 1 -1 -0 2 1 1 1 0 1 1 2 -1 -4 -2 -4 -1 -2 0 -0 -4 -1
1 0 0 0 -1 -3 -2 -1 -1 -2 -0 -1 -1 0 -1 1 2 1 1 1 2 1 0 -1 -1 1 2 1 0 -1 1 1 2 -0 -2 -2 -2 1 -3 -3 -3 -1 -3
-3 -3 -3 -1 -3 1 1 1 -1 -1 -1 -1 -0 1 -1 -2 -3 -3 0 1 1 -0 -1 0 2 2 -0 -1 -1 0 2 1 1 1 -1 -1 -4 0 2 -0 -4 -1 0
3 2 0 2 -0 -2 -1 -3 -3 -2 -2 -2 -1 -2 -2 -1 -1 -1 -2 -2 -1 -1 0 4 1 -0 1 1 2 1 3 1 0 1 0 -2 -2 2 3 -0 -1 -1 -6
-2 -1 -2 -1 1 2 1 -1 -1 -2 -2 -2 -1 -2 -1 -2 -1 1 1 0 -1 -0 1 -1 -2 3 2 -1 1 1 0 0 2 2 -0 1 -0 3 3 -2 -0 -1 -0
-1 -1 -0 0 -1 -2 -3 -2 0 1 -0 -1 -0 -0 1 -2 -3 -2 -2 1 3 1 -1 -1 -2 -1 1 -1 -1 -1 2 4 2 1 -2 -0 0 3 2 3 1 -1 -1
-1 -0 -1 -0 0 -1 -0 -1 -2 -1 -1 -1 -3 -2 -3 0 -0 -1 -0 -0 -1 -0 1 3 1 -0 -0 1 -3 -2 -1 0 2 3 2 2 -0 2 2 3 -4 -1 -2
0 -0 -0 -1 -3 -3 -2 -1 -1 -2 -2 -3 1 -1 0 0 1 1 -2 -0 -0 0 1 -1 -2 -3 1 2 0 1 -3 -0 -4 -2 -0 -0 2 0 3 -3 6 -0 1
1 1 -0 -1 -1 -2 -1 -3 -3 -4 1 1 0 2 2 -0 -1 -1 -1 -1 -2 -2 -2 -2 -0 -1 -0 1 1 1 0 -0 2 -4 -5 -2 0 -0 2 2 2 4 3
0 -1 -0 0 0 -1 -1 0 1 -2 -2 0 -2 -1 2 2 2 1 0 0 -0 -4 -1 -0 -1 -2 -5 -3 -0 3 1 -0 1 2 0 -2 -3 0 1 -1 -0 -2 2
-1 0 -0 1 0 -0 -2 -2 -2 2 0 -1 -2 -3 -6 -2 -0 2 2 -0 5 -0 -0 -2 -3 -3 1 1 5 1 1 2 0 -2 -1 0 2 1 2 0 -1 -2 -2
-0 2 2 -2 -1 0 1 1 -2 -1 -1 -1 -2 -5 -5 -5 -2 -1 -0 -3 -1 1 1 -2 -2 -1 1 -0 -0 3 3 -1 -3 -1 1 -0 2 0 -2 1 -1 2 -1
-0 0 -0 -0 -0 -3 -0 -3 -3 2 0 -5 -3 -1 -2 -7 -3 -2 -3 -6 -3 -2 -6 -3 -5 -5 -5 -2 -0 -2 -1 -0 2 2 -0 -3 1 1 0 3 1 2 -3
-1 -1 -1 -3 -1 -1 -3 -8 6 1 -2 5 6 5 -2 3 -2 -4 -1 1 0 1 -2 -2 -3 -0 -2 -3 -4 -4 0 2 -2 -1 2 2 -3 1 1 0 -0 1 1
-3 -3 -3 -2 -1 -3 -3 -3 -6 -8 5 1 -2 0 6 3 -3 -1 -2 -2 -1 0 1 -1 -3 -3 -5 -4 -2 -1 -6 -3 1 0 -1 2 2 1 3 0 -2 1 -0
-1 1 -2 -1 -2 -2 -0 -1 -1 -1 -6 -18 -4 3 -2 1 2 -2 -2 -3 -7 3 4 0 0 1 -1 -3 -4 -3 -2 -1 0 1 -1 -2 -0 2 5 -1 -1 -2 -2
-1 -1 -1 -1 0 -1 -2 -3 -2 -3 -2 -2 -2 -9 5 8 2 1 3 3 0 -3 -2 -3 1 -1 -1 -1 -1 0 -1 -2 -2 1 0 1 -0 3 1 5 2 1 2
-2 -1 -2 -3 -2 -3 -1 -0 -1 1 0 -0 -3 -2 -2 -6 -6 -3 1 1 2 2 2 -1 -2 -1 -1 -0 -2 -1 -2 -1 -3 -1 -2 -2 -3 3 -0 2 6 3 -2
-1 1 1 -2 -0 1 0 -1 -0 -0 -0 -1 -3 3 4 -0 -5 -4 -2 -1 -0 -1 -1 0 -1 0 -1 -2 -0 0 -0 -2 -2 0 1 0 -4 6 -1 0 4 4 1
0 -1 1 -1 2 -1 -0 2 1 0 0 -2 -5 -2 1 1 1 -0 -0 -0 -2 1 3 -0 -1 1 -0 -0 -1 1 0 -1 0 2 -3 -1 2 1 1 2 5 2 1
0 -1 -1 -1 0 -0 -1 2 -1 1 -1 -0 -2 -6 -2 -3 -3 -2 -1 -3 -2 -2 -0 1 -1 -2 2 1 1 -0 -1 -3 -2 4 0 3 0 -2 1 4 3 1 -0
1 -1 -2 -0 2 1 -0 -1 -1 0 2 -1 -1 2 -1 -2 -2 -2 -1 -1 -1 0 -1 -1 -1 -1 -1 6 -1 6 0 -3 -1 3 4 6 3 1 2 -0 -1 -1 -2
0 -1 1 2 2 1 1 2 -2 -1 -0 1 -2 -1 0 0 -1 -2 -2 -0 -1 -4 -3 3 -2 -4 1 7 0 -1 -0 8 3 4 3 2 2 2 3 2 2 -1 -1
-1 -1 -1 1 -2 1 1 -3 -2 -1 -3 -1 -0 2 2 1 -2 -4 -1 -0 -2 4 3 -2 -3 1 0 -2 -1 2 5 0 -2 1 4 3 2 -0 1 -1 1 2 1
Height
1528 1526 1525 1523 1521 1519 1517 1515 1513 1511 1509 1508 1506 1505 1504 1502 1501 1500 1500 1498 1497 1496 1496 1495 1494 1493 1492 1492 1492 1492 1491 1491 1488 1485 1484 1483 1480 1478 1476 1473 1470 1468 1467
1525 1524 1522 1520 1518 1516 1514 1512 1510 1508 1506 1504 1502 1501 1499 1498 1497 1496 1495 1494 1493 1492 1491 1491 1490 1489 1488 1488 1487 1487 1486 1486 1485 1481 1481 1480 1477 1475 1473 1471 1469 1467 1465
1522 1521 1519 1517 1515 1513 1511 1508 1506 1504 1503 1501 1499 1497 1495 1494 1493 1492 1491 1490 1488 1488 1487 1486 1486 1484 1483 1483 1483 1482 1481 1481 1480 1478 1475 1475 1473 1472 1470 1468 1467 1465 1463
1519 1518 1517 1516 1514 1512 1510 1507 1506 1503 1500 1498 1496 1493 1491 1490 1489 1487 1486 1485 1483 1482 1482 1481 1480 1479 1478 1478 1477 1477 1476 1475 1474 1473 1471 1470 1469 1468 1466 1464 1463 1462 1460
1517 1516 1515 1514 1512 1512 1509 1506 1504 1502 1500 1497 1494 1491 1489 1487 1485 1483 1482 1480 1478 1477 1477 1476 1475 1474 1473 1472 1471 1471 1470 1469 1468 1467 1465 1465 1464 1463 1462 1460 1458 1457 1456
1514 1513 1513 1512 1510 1509 1507 1505 1503 1501 1499 1496 1492 1489 1487 1484 1482 1480 1478 1475 1474 1473 1471 1470 1469 1468 1467 1466 1465 1464 1464 1462 1461 1461 1460 1458 1458 1457 1457 1455 1453 1452 1451
1512 1512 1511 1511 1509 1507 1505 1503 1501 1499 1496 1493 1490 1487 1484 1482 1480 1477 1474 1472 1470 1468 1466 1464 1463 1462 1460 1459 1459 1458 1457 1456 1455 1455 1453 1453 1452 1452 1451 1450 1449 1448 1447
1510 1510 1509 1508 1506 1505 1503 1501 1499 1496 1494 1491 1488 1486 1482 1480 1477 1474 1471 1469 1467 1464 1462 1460 1457 1456 1454 1453 1451 1451 1450 1449 1449 1448 1446 1446 1446 1446 1445 1444 1443 1442 1440
1508 1508 1507 1506 1504 1502 1500 1498 1495 1493 1490 1488 1486 1483 1480 1478 1475 1472 1469 1466 1463 1461 1458 1456 1453 1451 1450 1448 1446 1444 1443 1442 1442 1441 1439 1438 1438 1439 1439 1438 1436 1436 1434
1505 1505 1504 1502 1501 1499 1497 1494 1491 1489 1487 1484 1482 1480 1478 1475 1472 1469 1466 1464 1460 1457 1455 1454 1451 1449 1446 1444 1442 1440 1437 1436 1435 1434 1433 1432 1431 1430 1431 1430 1431 1430 1430
1502 1501 1501 1499 1498 1496 1493 1490 1488 1486 1484 1481 1479 1476 1474 1471 1469 1466 1464 1461 1457 1454 1451 1450 1448 1446 1444 1441 1439 1436 1434 1431 1429 1427 1427 1426 1424 1424 1423 1423 1424 1424 1424
1499 1498 1497 1496 1494 1492 1489 1487 1484 1482 1479 1477 1474 1472 1470 1468 1465 1462 1459 1456 1453 1449 1447 1445 1443 1441 1439 1437 1435 1433 1430 1427 1425 1422 1419 1418 1418 1417 1416 1415 1416 1417 1417
1495 1494 1493 1491 1489 1488 1486 1484 1481 1478 1475 1473 1470 1466 1464 1463 1461 1458 1456 1452 1449 1445 1442 1440 1437 1435 1433 1431 1429 1428 1425 1422 1420 1417 1415 1413 1411 1410 1409 1408 1408 1408 1409
1491 1490 1488 1487 1486 1484 1482 1479 1477 1475 1472 1469 1466 1463 1460 1458 1456 1453 1451 1446 1445 1440 1436 1433 1431 1429 1427 1423 1421 1419 1417 1415 1413 1411 1409 1408 1406 1404 1403 1403 1402 1402 1402
1485 1484 1483 1482 1481 1479 1477 1475 1472 1471 1468 1465 1462 1459 1455 1453 1451 1448 1445 1441 1437 1433 1429 1426 1423 1421 1419 1415 1413 1410 1408 1406 1406 1404 1402 1401 1399 1398 1397 1397 1397 1397 1396
1480 1479 1478 1476 1475 1473 1471 1469 1469 1465 1464 1462 1459 1455 1452 1449 1446 1443 1440 1436 1432 1428 1423 1419 1417 1414 1411 1409 1407 1403 1401 1399 1397 1397 1395 1394 1392 1392 1391 1391 1391 1390 1389
1474 1474 1472 1471 1469 1467 1465 1463 1459 1459 1457 1454 1453 1450 1448 1443 1440 1437 1434 1430 1425 1421 1417 1414 1411 1408 1406 1404 1402 1399 1395 1393 1391 1389 1388 1386 1385 1385 1385 1384 1384 1383 1382
1469 1467 1465 1463 1462 1460 1458 1456 1454 1450 1446 1446 1446 1444 1441 1437 1432 1429 1426 1421 1418 1415 1411 1408 1405 1403 1400 1398 1395 1393 1390 1387 1385 1382 1380 1379 1378 1377 1376 1376 1377 1376 1376
1462 1461 1459 1457 1455 1453 1451 1449 1448 1445 1442 1438 1435 1435 1434 1428 1424 1421 1418 1414 1410 1406 1403 1400 1398 1395 1393 1390 1388 1385 1382 1379 1376 1374 1371 1370 1369 1369 1368 1368 1368 1368 1368
1456 1454 1452 1450 1448 1446 1444 1442 1441 1438 1435 1431 1427 1425 1422 1419 1414 1411 1408 1405 1401 1398 1395 1392 1389 1386 1384 1382 1379 1377 1373 1371 1367 1365 1363 1362 1361 1360 1359 1358 1359 1359 1360
1448 1446 1445 1442 1440 1438 1437 1435 1433 1430 1427 1423 1419 1416 1413 1409 1404 1401 1398 1396 1393 1390 1387 1383 1381 1378 1376 1373 1371 1368 1365 1362 1359 1357 1355 1354 1353 1351 1350 1349 1350 1350 1351
1440 1438 1436 1434 1432 1430 1429 1426 1424 1421 1418 1413 1409 1405 1403 1400 1396 1393 1389 1386 1384 1381 1377 1375 1372 1370 1367 1364 1362 1359 1356 1353 1351 1349 1347 1345 1343 1342 1342 1341 1342 1342 1344
1432 1429 1427 1425 1423 1421 1419 1417 1414 1412 1408 1404 1400 1397 1395 1392 1389 1385 1381 1378 1375 1371 1368 1365 1362 1359 1357 1355 1353 1350 1347 1344 1342 1340 1338 1337 1335 1334 1334 1334 1334 1335 1335
1424 1421 1418 1416 1414 1411 1409 1407 1404 1401 1398 1394 1392 1390 1387 1384 1381 1377 1373 1369 1365 1362 1359 1357 1354 1351 1347 1345 1342 1339 1337 1334 1332 1330 1329 1327 1326 1326 1326 1325 1326 1326 1327
1415 1412 1410 1407 1404 1402 1400 1397 1394 1391 1388 1386 1384 1381 1378 1375 1371 1367 1363 1359 1356 1353 1350 1347 1344 1340 1336 1333 1331 1328 1325 1324 1323 1321 1319 1318 1318 1317 1317 1317 1318 1318 1319
1405 1402 1400 1397 1394 1393 1391 1387 1384 1382 1379 1377 1375 1372 1370 1366 1362 1358 1354 1352 1349 1346 1341 1337 1332 1329 1325 1321 1318 1316 1314 1313 1312 1311 1310 1309 1308 1308 1308 1308 1309 1309 1310